Location: Unspecified
(0.0000°N, 0.0000°E)
Time: 17:54:32
(UTC+00:00)

STARLINK 1058 - Pass Details

Date: 21 January 2020
Orbit: 548 x 551 km, 53.0° (Epoch: 22 January)

Event Time Altitude Azimuth Distance (km) Brightness Sun altitude
Rises 05:25:40 0° 220° (SW) 2,716 7.0 -10.7°
Reaches altitude 10° 05:27:56 10° 224° (SW) 1,820 6.0 -10.1°
Maximum altitude 05:32:00 60° 303° (WNW) 631 3.6 -9.2°
Drops below altitude 10° 05:36:04 10° 24° (NNE) 1,810 6.3 -8.2°
Sets 05:38:18 0° 28° (NNE) 2,700 7.3 -7.7°
